Wind_Speed
13 13 12 14 13 11 11 9 8 9 15 17 21 20 22 21 18 15 14 16 16 15
14 12 10 11 11 8 8 8 10 8 8 11 16 13 12 10 9 17 24 23 23 21
17 15 14 12 12 12 12 12 12 11 11 11 9 16 15 11 9 8 13 16 19 24
19 18 17 16 16 16 16 14 15 15 16 16 16 18 19 18 18 20 25 28 29 29
21 19 18 17 17 21 22 22 22 23 24 25 25 27 30 30 30 32 35 30 29 28
20 20 18 19 20 19 21 24 27 26 28 28 29 25 26 26 24 24 24 26 29 30
20 19 18 18 15 13 12 13 15 16 16 15 16 18 18 20 21 22 24 25 28 29
17 16 15 14 14 12 11 11 11 12 12 13 14 15 16 17 18 19 21 23 26 27
15 14 14 13 11 11 10 9 9 9 9 9 11 12 13 14 16 16 19 21 22 24
14 12 12 11 11 9 9 9 9 9 9 10 12 13 15 16 17 18 18 18 18 21
13 12 12 12 11 10 9 10 10 10 11 12 14 15 16 16 18 19 19 18 18 20
12 13 12 11 10 10 11 12 12 12 13 14 15 17 17 18 20 20 19 20 18 17
12 12 11 11 11 12 13 14 14 15 15 16 17 16 17 19 21 20 19 19 17 16
13 12 12 13 13 13 15 15 17 18 18 19 18 18 18 17 18 19 19 19 17 15
Wind_Direction
213 225 233 227 228 215 222 217 216 244 250 251 252 256 246 250 247 236 224 234 233 227
201 199 188 183 181 176 196 204 213 256 245 251 265 256 247 237 253 266 249 268 254 257
203 199 190 187 204 220 229 229 237 247 257 272 261 245 257 247 245 263 256 254 259 265
201 202 212 222 231 241 248 252 254 254 255 256 257 255 259 264 269 265 269 272 272 271
215 222 236 238 251 256 254 253 252 259 265 269 267 264 263 267 266 269 266 275 277 278
225 235 240 248 252 258 257 253 258 262 267 267 264 262 262 265 271 275 275 275 276 277
232 244 247 247 247 249 249 252 254 258 256 254 257 260 263 267 270 272 275 277 277 279
231 230 231 231 231 227 227 228 231 235 244 254 259 265 272 277 280 283 286 287 286 283
218 214 215 217 218 216 221 226 229 239 244 257 266 271 279 284 287 298 305 308 307 299
208 213 219 222 225 229 229 230 232 236 246 260 272 281 287 289 293 300 307 307 306 305
210 216 220 223 225 227 231 236 241 249 260 271 279 287 291 294 294 297 296 294 293 299
212 214 216 220 229 237 242 247 252 260 270 281 290 295 297 300 297 295 296 291 287 291
213 218 224 232 239 245 251 255 260 269 275 278 278 277 287 298 296 293 291 292 292 287
227 231 234 238 243 248 252 256 263 268 269 271 277 278 282 289 289 290 293 298 295 284
Height
1509 1513 1517 1520 1523 1524 1528 1530 1533 1535 1536 1538 1539 1540 1540 1540 1540 1538 1540 1542 1544 1546
1509 1512 1515 1518 1522 1524 1528 1529 1531 1534 1535 1536 1537 1538 1537 1535 1536 1537 1539 1540 1540 1542
1509 1513 1516 1519 1522 1524 1527 1527 1528 1530 1533 1534 1534 1536 1535 1534 1534 1535 1537 1538 1540 1540
1509 1513 1515 1517 1520 1521 1523 1524 1526 1528 1529 1532 1532 1533 1533 1532 1532 1533 1535 1535 1535 1534
1508 1511 1514 1515 1517 1519 1519 1519 1521 1524 1526 1527 1527 1528 1529 1528 1528 1528 1529 1529 1528 1528
1506 1509 1509 1511 1512 1512 1512 1513 1516 1518 1520 1521 1522 1523 1524 1524 1523 1523 1524 1523 1523 1523
1502 1503 1505 1508 1508 1508 1509 1509 1511 1513 1516 1517 1519 1520 1520 1520 1520 1520 1518 1518 1518 1516
1498 1500 1503 1505 1505 1507 1508 1507 1509 1511 1513 1515 1517 1517 1517 1516 1516 1516 1514 1512 1511 1510
1496 1497 1500 1502 1504 1504 1504 1505 1508 1510 1510 1512 1515 1515 1513 1514 1513 1510 1509 1506 1506 1505
1493 1495 1497 1500 1502 1501 1502 1504 1507 1508 1508 1510 1512 1512 1511 1510 1508 1506 1504 1503 1502 1502
1491 1494 1497 1498 1498 1499 1500 1503 1504 1505 1506 1507 1509 1508 1507 1505 1503 1502 1500 1499 1497 1497
1491 1493 1494 1494 1495 1497 1499 1501 1502 1503 1504 1504 1504 1503 1502 1501 1499 1498 1496 1495 1493 1491
1490 1491 1491 1491 1493 1495 1496 1498 1499 1500 1500 1500 1500 1499 1498 1497 1496 1494 1493 1492 1489 1488
1487 1488 1488 1489 1491 1492 1494 1495 1496 1496 1497 1496 1495 1494 1493 1492 1492 1490 1489 1487 1486 1485